Back to catalog

THAICOM 1

AliveCommunicationsGEO
NORAD 22931·PAYLOAD·🇹🇭 Thailand

Launched Dec 18, 1993 from Guiana Space Centre

Loading…

TLE

FreshSource: Space-Track

Epoch: Sep 14, 2026, 12:16 UTC

1 22931U 93078B   26257.51143531  .00000031  00000-0  00000-0 0  9993
2 22931  12.0691  34.0551 0006937 201.7866 340.2914  0.99182022 47053

Track THAICOM 1 in real time with AllMySat

Download on the App Store